GW3984 Weather Reports


Display with metric or nautical units.
time (UTC)temp
F
wind
direction
speed
MPH
gust
MPH
rain 1hr
in
rain 24hr
in
rain mn
in
humidity
%
barometer
mb
20260503173040 75 236 1.0 5.0 0.00 0.00 0.00 44 1023.5
20260503171608 76 212 0.0 5.0 0.00 0.00 0.00 44 1023.0
20260503171508 76 168 1.0 7.0 0.00 0.00 0.00 43 1023.8
20260503170605 74 131 1.0 7.0 0.00 0.00 0.00 49 1023.0
20260503110205 46 140 0.0 0.0 0.00 0.00 0.00 94 1021.8
20260503100149 47 140 0.0 0.0 0.00 0.00 0.00 94 1021.7
20260503081519 48 142 0.0 2.0 0.00 0.00 0.00 93 1022.2
20260503072623 49 140 0.0 0.0 0.00 0.00 0.00 93 1022.0
20260503071524 49 142 0.0 0.0 0.00 0.00 0.00 92 1022.6
20260503070439 50 140 0.0 0.0 0.00 0.00 0.00 92 1022.2
20260503054510 50 142 0.0 2.0 0.00 0.00 0.00 90 1022.8
20260503054312 51 140 0.0 0.0 0.00 0.00 0.00 91 1022.1
20260503053011 51 140 0.0 1.0 0.00 0.00 0.00 90 1022.8
20260503052128 51 139 0.0 0.0 0.00 0.00 0.00 90 1022.2
20260503051526 51 140 0.0 0.0 0.00 0.00 0.00 89 1022.9
20260503051124 52 139 0.0 0.0 0.00 0.00 0.00 90 1022.1
20260503050128 52 139 0.0 0.0 0.00 0.00 0.00 89 1022.0
20260503050023 51 140 0.0 0.0 0.00 0.00 0.00 89 1022.8
20260503044526 52 140 0.0 0.0 0.00 0.00 0.00 88 1022.7
20260503043934 52 139 0.0 0.0 0.00 0.00 0.00 89 1021.8
20260503043014 52 140 0.0 0.0 0.00 0.00 0.00 87 1022.6
20260503042949 53 139 0.0 0.0 0.00 0.00 0.00 88 1022.0
20260503041916 53 139 0.0 0.0 0.00 0.00 0.00 87 1022.1
20260503041514 53 140 0.0 0.0 0.00 0.00 0.00 87 1022.9
20260503040939 53 139 0.0 0.0 0.00 0.00 0.00 87 1022.1
20260503040010 53 140 0.0 0.0 0.00 0.00 0.00 86 1022.7
20260503035946 54 139 0.0 0.0 0.00 0.00 0.00 87 1021.9
20260503034955 54 139 0.0 0.0 0.00 0.00 0.00 87 1021.8
20260503034510 54 140 0.0 0.0 0.00 0.00 0.00 86 1022.5
20260503033009 54 140 0.0 0.0 0.00 0.00 0.00 84 1022.6
20260503032756 55 139 0.0 0.0 0.00 0.00 0.00 84 1021.8
20260503031739 55 139 0.0 0.0 0.00 0.00 0.00 85 1021.6
20260503031533 55 140 0.0 0.0 0.00 0.00 0.00 84 1022.4
20260503030740 55 139 0.0 0.0 0.00 0.00 0.00 84 1021.5
20260503030025 55 140 0.0 0.0 0.00 0.00 0.00 82 1022.3
20260503024624 56 139 0.0 0.0 0.00 0.00 0.00 82 1021.1
20260503024523 56 140 0.0 0.0 0.00 0.00 0.00 81 1021.8
20260503023613 57 139 0.0 0.0 0.00 0.00 0.00 80 1021.0
20260503023039 57 140 0.0 0.0 0.00 0.00 0.00 79 1021.8
20260503022545 58 139 0.0 0.0 0.00 0.00 0.00 79 1021.0
20260503021559 58 139 0.0 0.0 0.00 0.00 0.00 76 1020.7
20260503021517 58 140 0.0 0.0 0.00 0.00 0.00 76 1021.5
20260503020013 59 140 0.0 0.0 0.00 0.00 0.00 74 1021.3
20260503015441 60 139 0.0 0.0 0.00 0.00 0.00 71 1020.3
20260503014510 60 140 0.0 0.0 0.00 0.00 0.00 70 1020.9
20260503014436 60 139 0.0 0.0 0.00 0.00 0.00 70 1020.2
20260503013440 62 139 0.0 0.0 0.00 0.00 0.00 67 1020.1
20260503013008 62 140 0.0 0.0 0.00 0.00 0.00 64 1020.8
20260503012415 64 139 0.0 0.0 0.00 0.00 0.00 62 1020.0
20260503011524 63 140 0.0 0.0 0.00 0.00 0.00 63 1020.6
20260503010229 64 139 0.0 0.0 0.00 0.00 0.00 62 1019.8
20260503010031 64 140 0.0 0.0 0.00 0.00 0.00 61 1020.5
20260503005244 66 139 0.0 0.0 0.00 0.00 0.00 57 1019.7
20260503004523 67 140 0.0 2.0 0.00 0.00 0.00 54 1020.5
20260503004238 68 139 0.0 0.0 0.00 0.00 0.00 51 1019.7
20260503003257 69 76 0.0 1.0 0.00 0.00 0.00 50 1019.5
20260503003021 68 74 0.0 2.0 0.00 0.00 0.00 49 1020.4
20260503002304 69 66 0.0 0.0 0.00 0.00 0.00 49 1019.7
20260503001520 69 57 0.0 2.0 0.00 0.00 0.00 46 1020.6
20260503001323 70 354 0.0 0.0 0.00 0.00 0.00 45 1019.7
20260503000332 70 330 0.0 2.0 0.00 0.00 0.00 47 1019.7
20260503000023 70 144 0.0 4.0 0.00 0.00 0.00 43 1020.5
20260502235306 71 113 0.0 1.0 0.00 0.00 0.00 45 1019.7
20260502234514 71 210 0.0 5.0 0.00 0.00 0.00 44 1020.4
20260502233011 72 307 0.0 2.0 0.00 0.00 0.00 42 1020.5
20260502232044 72 108 0.0 3.0 0.00 0.00 0.00 44 1019.7
20260502231516 71 96 2.0 5.0 0.00 0.00 0.00 42 1020.5
20260502231046 72 121 0.0 2.0 0.00 0.00 0.00 47 1019.7
20260502230009 72 136 2.0 4.0 0.00 0.00 0.00 45 1020.4
20260502224941 73 82 0.0 9.0 0.00 0.00 0.00 47 1019.5
20260502224524 72 132 1.0 4.0 0.00 0.00 0.00 44 1020.3
20260502223938 73 122 0.0 3.0 0.00 0.00 0.00 42 1019.5
20260502223024 73 173 1.0 4.0 0.00 0.00 0.00 41 1020.2
20260502222947 74 252 0.0 3.0 0.00 0.00 0.00 42 1019.4
20260502221957 73 335 0.0 3.0 0.00 0.00 0.00 43 1019.5
20260502221521 73 144 1.0 4.0 0.00 0.00 0.00 40 1020.3
20260502220942 73 194 0.0 5.0 0.00 0.00 0.00 45 1019.5
20260502220022 72 169 2.0 7.0 0.00 0.00 0.00 42 1020.3
20260502215920 73 152 1.0 5.0 0.00 0.00 0.00 43 1019.6
20260502214921 73 172 1.0 5.0 0.00 0.00 0.00 44 1019.6
20260502214520 73 232 1.0 6.0 0.00 0.00 0.00 43 1020.4
20260502213912 73 122 0.0 4.0 0.00 0.00 0.00 48 1019.7
20260502213015 73 213 0.0 9.0 0.00 0.01 0.00 45 1020.5
20260502212922 73 296 0.0 6.0 0.00 0.01 0.00 46 1019.8
20260502211912 74 54 0.0 3.0 0.00 0.01 0.00 46 1020.0
20260502211512 74 61 1.0 3.0 0.00 0.02 0.00 42 1020.9
20260502210917 73 141 0.0 0.0 0.00 0.03 0.00 45 1020.1
20260502210008 73 164 2.0 5.0 0.00 0.04 0.00 43 1021.0
20260502205936 74 143 0.0 3.0 0.00 0.03 0.00 43 1020.3
20260502204941 74 325 0.0 9.0 0.00 0.05 0.00 44 1020.5
20260502204528 74 142 1.0 5.0 0.00 0.05 0.00 48 1021.3
20260502203027 74 103 0.0 5.0 0.00 0.08 0.00 44 1021.4
20260502202853 74 183 0.0 3.0 0.00 0.08 0.00 44 1020.7
20260502201910 74 355 0.0 3.0 0.00 0.08 0.00 42 1020.7
20260502201522 74 286 1.0 4.0 0.00 0.09 0.00 42 1021.6
20260502200910 74 273 0.0 5.0 0.00 0.10 0.00 52 1020.9
20260502200024 72 319 1.0 7.0 0.00 0.12 0.00 46 1021.6
20260502195857 73 205 0.0 5.0 0.00 0.12 0.00 45 1020.9
20260502194521 72 302 1.0 6.0 0.00 0.12 0.00 46 1021.8
20260502193729 73 318 0.0 10.0 0.00 0.12 0.00 49 1021.0
20260502193026 73 231 0.0 12.0 0.00 0.12 0.00 48 1021.8
20260502192710 74 304 1.0 10.0 0.00 0.12 0.00 50 1021.1
20260502191715 73 322 1.0 5.0 0.00 0.12 0.00 49 1021.2
20260502191520 72 136 3.0 7.0 0.00 0.12 0.00 47 1021.9
20260502190653 73 26 0.0 1.0 0.00 0.12 0.00 48 1021.3
20260502190013 73 277 0.0 10.0 0.00 0.12 0.00 51 1022.2
20260502185633 73 245 1.0 8.0 0.00 0.12 0.00 53 1021.4
20260502184612 73 297 0.0 11.0 0.00 0.12 0.00 50 1021.5
20260502184522 72 44 1.0 4.0 0.00 0.12 0.00 49 1022.3
20260502183600 74 353 0.0 11.0 0.00 0.12 0.00 51 1021.6
20260502183026 72 213 3.0 13.0 0.00 0.13 0.00 50 1022.4
20260502182604 73 152 0.0 4.0 0.00 0.12 0.00 51 1021.6
20260502181523 72 330 2.0 4.0 0.00 0.13 0.00 52 1022.7